Powrót do katalogu

STARLINK-37739

AktywnyŁącznośćSSO
NORAD 69233·PAYLOAD·🇺🇸 United States

Wystrzelony May 26, 2026 z Vandenberg Space Force Base

Loading…

Następne Przeloty (najbliższe 24 godziny)

TLE

ŚwieżeSource: CelesTrak SupGP

Epoka: Sep 15, 2026, 04:28 UTC

1 69233C 26115Y   26258.18659722 -.00058686  00000+0 -18220-2 0  2588
2 69233  97.2832 274.4133 0001443  93.6796 129.7470 15.33463807    13

Śledź STARLINK-37739 w czasie rzeczywistym z AllMySat

Download on the App Store